Погода в Подберезье

Россия / Псковская область     56°55′27″N   30°37′55″E
темп.,
°C
ветер,
м/с
пор.,
м/с
влажн.,
%
обл.,
%
осадки,
мм/ч
давл.,
гПа
погр.,
м
12 апреля, пн
пн1200:00+8ююв288962 0.0 1028176
03:00+6ююв3109123 0.0 1028182
06:00+5ююв3119092 0.0 1028222
09:00+10ююв412737 0.0 1028405
12:00+15ююв59504 0.0 10271152
15:00+17ююв57380 0.0 10251589
18:00+15юв5844100 0.0 1023943
21:00+10ююв51156100 0.0 1023541
13 апреля, вт
вт1300:00+8ююв41189100 0.3 1023593
03:00+9ю3993100 0.6 1022493
06:00+6ю269855 0.0 1022125
09:00+10ю24812 0.0 1022334
12:00+15ю235257 0.0 1021811
15:00+17ю244192 0.0 10201539
18:00+15ююв4666100 0.0 1020427
21:00+11зюз1189100 0.1 102023
14 апреля, ср
ср1400:00+9ссз3692100 1.3 1020249
03:00+7с3696100 3.9 1019272
06:00+7с4896100 0.7 1018368
09:00+6с4894100 0.8 1018373
12:00+5с3694100 0.3 1019318
15:00+5с3492100 0.4 1019356
18:00+5с3792100 0.0 1020397
21:00+4ссв3795100 0.0 1021390
15 апреля, чт
чт1500:00+3ссв3895100 0.0 1021367
03:00+3ссв41094100 0.0 1021386
06:00+3ссв4990100 0.0 1021376
09:00+3ссв41090100 0.5 1021398
12:00+4ссв41088100 0.6 1021493
15:00+5ссв41085100 1.4 1021599
18:00+6ссв41284100 0.9 1021658
21:00+5ссв41286100 1.0 1022602
16 апреля, пт
пт1600:00+5ссв41288100 0.0 1022626
03:00+5ссв5128890 0.0 1022626
06:00+3ссв5139392 0.0 1023524
09:00+5св5128397 0.0 1024687
12:00+9св696036 0.0 10241130
15:00+12св69405 0.0 10251479
18:00+11св510490 0.0 10261443
21:00+7св412600 0.0 1028576